Weather in Novopetrovka

Russia / Amur Oblast     50°47′07″N   127°45′24″E
temp.,
°C
wind,
m/s
gust,
m/s
humid.,
%
clouds,
%
prec.,
mm/h
press.,
hPa
HPBL,
m
13 may, thu
thu1300:00+8sse2492100 3.6 997217
03:00+8n0093100 4.0 99720
06:00+8nw1296100 1.6 998116
09:00+9wnw4893100 2.1 1000508
12:00+9wnw488799 0.7 1002775
15:00+10wnw61084100 1.1 1004890
18:00+10nw478144 0.0 1006574
21:00+7n2291100 0.0 100711
14 may, fri
fri1400:00+6sse119133 0.0 100811
03:00+5ese3394100 0.0 100754
06:00+6ese2891100 0.0 1007266
09:00+9se61280100 0.0 1004455
12:00+13s5860100 0.0 1003647
15:00+13ssw3674100 1.9 1001510
18:00+11nnw4777100 0.3 1001397
21:00+9nne2282100 0.3 100238
15 may, sat
sat1500:00+6nnw128689 0.0 100228
03:00+6wsw268399 0.0 1001153
06:00+6w39835 0.0 1001332
09:00+11w685797 0.0 10001452
12:00+10wnw6116398 0.0 10001451
15:00+10wnw6126491 0.0 10011341
18:00+12wnw7156183 0.0 10011589
21:00+8wnw35789 0.0 100379
16 may, sun
sun1600:00+7w411805 0.0 1003235
03:00+7w412720 0.0 1003285
06:00+7w310740 0.0 1002322
09:00+13nw47450 0.0 1002885
12:00+18wnw47270 0.0 10001788
15:00+21wnw37224 0.0 9982472
18:00+20nnw2427100 0.0 9972702
21:00+12ssw116579 0.5 99915
17 may, mon
mon1700:00+10wnw22735 0.0 100017
03:00+9wnw22785 0.0 100026
06:00+10w25730 0.0 1001124
09:00+17sw46465 0.0 1000687
12:00+22w692635 0.0 9992844
15:00+23w682482 0.0 9983171
18:00+22w253186 0.0 9981408
21:00+15e48435 0.0 999139